Home   Weather   Redmond   Past weeks

Flag for USA Past Weather in Redmond, Washington, USA — Yesterday and Last 2 Weeks

Now
64 °F

Sunny.


Feels Like: 64 °F
Forecast: 55 / 77 °F
Wind: 3 mph from North

Location: Seattle Boeing Field

Current Time: Sep 26, 2016 at 10:32:15 AM

Latest Report: Sep 26, 2016 at 9:53 AM


Visibility: 10 mi

Pressure: 30.10 "Hg

Humidity: 70%

Dew Point: 54 °F

Location of RedmondLocation

Past Weather in Redmond — Graph

°F

Redmond Temperature Yesterday

Maximum temperature yesterday: 75 °F (at 3:53 PM)
Minimum temperature yesterday: 59 °F (at 5:53 AM)
Average temperature yesterday: 66 °F

High & Low Weather Summary for the Past Weeks

 TemperatureHumidityPressure
High79 °F (Sep 14, 3:53 PM)93% (Sep 17, 6:53 AM)30.40 "Hg (Sep 17, 6:53 AM)
Low49 °F (Sep 20, 6:53 AM)25% (Sep 14, 2:53 PM)29.87 "Hg (Sep 17, 10:53 AM)
Average62 °F65%30.10 "Hg
* Reported Sep 11 8:53 AM — Sep 26 8:53 AM, Redmond, Weather by CustomWeather, © 2016

Note: Actual official high and low records may vary slightly from our data, if they occured in-between our weather recording intervals... More about our weather records

Advertising

Redmond Weather History for the Previous 24 Hours

Scroll right to see more
 ConditionsComfort  
Time TempWeatherWind HumidityBarometerVisibility
8:53 AM
Mon, Sep 26
61 °FPassing clouds.No wind75%30.11 "Hg10 mi
7:53 AM58 °FPassing clouds.3 mph78%30.12 "Hg10 mi
6:53 AM58 °FPassing clouds.3 mph78%30.13 "Hg10 mi
5:53 AM58 °FClear.3 mph78%30.14 "Hg10 mi
4:53 AM59 °FClear.3 mph75%30.15 "Hg10 mi
3:53 AM59 °FClear.3 mph75%30.17 "Hg10 mi
2:53 AM59 °FClear.5 mph72%30.19 "Hg10 mi
1:53 AM60 °FClear.No wind69%30.21 "Hg10 mi
12:53 AM61 °FClear.3 mph67%30.22 "Hg10 mi
11:53 PM
Sun, Sep 25
62 °FClear.3 mph62%30.23 "Hg10 mi
10:53 PM63 °FClear.No wind60%30.24 "Hg10 mi
9:53 PM63 °FClear.5 mph63%30.25 "Hg10 mi
8:53 PM63 °FClear.6 mph63%30.26 "Hg10 mi
7:53 PM67 °FPassing clouds.5 mph53%30.27 "Hg10 mi
6:53 PM71 °FPartly sunny.6 mph42%30.27 "Hg10 mi
5:53 PM73 °FSunny.6 mph41%30.28 "Hg10 mi
4:53 PM74 °FScattered clouds.7 mph40%30.29 "Hg10 mi
3:53 PM75 °FScattered clouds.6 mph36%30.32 "Hg10 mi
2:53 PM74 °FScattered clouds.10 mph37%30.35 "Hg10 mi
1:53 PM74 °FScattered clouds.7 mph41%30.37 "Hg10 mi
12:53 PM72 °FPassing clouds.5 mph44%30.38 "Hg10 mi
11:53 AM69 °FPartly sunny.5 mph55%30.39 "Hg10 mi
10:53 AM66 °FOvercast.6 mph63%30.40 "Hg10 mi
Weather by CustomWeather, © 2016

See weather overviewHow to use our weather pages